Temperature
17 17 17 17 17 18 18 18 18 18 18 18 18 18 18 18 18 18 18 18 18 18 18 18 18 18 18 18 18 18 18 18 18 18 18 18 18 18 18 18 18 18 18
17 17 17 17 17 17 17 17 17 17 18 18 18 18 17 17 18 18 18 18 18 18 18 18 18 18 18 18 18 18 18 18 18 18 18 18 18 18 18 18 18 18 18
18 18 17 17 17 17 17 17 17 17 17 17 17 17 17 17 17 17 17 17 17 17 17 17 18 18 18 18 18 18 18 17 18 18 18 18 18 18 18 18 18 18 18
18 18 17 17 17 17 17 17 17 17 17 17 17 17 17 17 17 17 17 17 17 17 17 17 17 17 17 17 17 17 17 17 17 17 17 17 17 17 17 17 17 17 18
18 17 17 17 17 17 17 17 17 17 17 17 17 17 17 17 17 17 17 17 17 17 17 17 17 17 17 17 17 17 17 17 17 17 17 17 17 17 17 17 17 17 17
17 17 17 17 17 17 17 17 17 17 17 17 17 17 17 17 17 17 17 17 17 17 17 17 17 17 17 17 17 17 17 17 17 17 17 17 17 17 17 17 17 17 17
17 17 17 17 17 17 17 17 17 17 17 17 17 17 17 17 17 17 17 17 17 17 17 17 17 17 17 17 17 17 17 17 17 17 17 17 17 17 17 17 17 17 17
18 17 17 17 17 17 17 17 17 17 17 17 17 17 17 17 17 17 17 17 17 17 17 17 16 16 16 16 16 16 16 16 16 16 16 16 16 17 17 17 17 17 17
18 17 17 17 17 17 17 17 17 17 17 17 16 17 16 17 17 17 17 16 16 16 16 16 16 16 16 16 16 16 16 16 16 16 16 16 16 16 16 16 16 16 16
18 17 17 17 17 17 17 17 17 17 17 16 16 16 16 16 16 16 16 16 16 16 16 16 16 16 16 16 16 16 16 16 16 16 16 16 16 16 16 16 16 16 16
18 17 17 17 17 17 17 17 17 16 16 16 16 16 16 16 16 16 16 16 16 16 16 16 16 16 16 16 16 16 16 16 16 16 16 16 16 16 16 16 16 16 16
18 17 17 17 17 17 17 17 16 16 16 16 16 16 16 16 16 16 16 16 16 16 16 16 15 15 15 15 15 15 15 16 16 16 16 16 16 16 16 16 15 16 16
18 18 17 17 17 17 17 17 16 16 16 16 16 16 16 16 16 16 16 16 16 16 16 15 15 15 15 15 15 15 15 15 15 15 15 15 15 15 15 15 15 15 15
18 18 18 17 17 17 17 17 16 16 16 16 16 16 16 16 16 16 16 16 16 15 15 15 15 15 15 15 15 15 15 15 15 15 15 15 15 15 15 15 15 15 15
18 18 18 18 17 17 17 17 16 16 16 16 16 16 16 16 16 16 16 16 15 15 15 15 15 15 15 15 15 15 15 15 15 15 15 15 15 15 15 15 15 15 15
18 18 18 18 17 17 17 17 16 16 16 16 16 16 16 16 16 16 15 15 15 15 15 15 15 15 15 15 15 15 15 15 15 15 15 15 15 15 15 15 14 14 14
18 18 18 18 17 17 17 17 16 16 16 16 16 16 16 16 16 15 15 15 15 15 15 15 15 15 15 15 15 15 15 14 15 15 15 15 15 14 14 14 14 14 14
18 18 18 17 17 17 17 17 16 16 16 16 16 16 16 16 16 15 15 15 15 15 15 15 15 15 15 15 15 15 14 14 14 14 14 14 14 14 14 14 14 14 14
18 18 18 18 17 17 17 17 16 16 16 16 16 16 16 16 16 16 15 15 15 15 15 15 15 15 15 15 14 14 14 14 14 14 14 14 14 14 14 14 14 14 14
18 18 18 18 17 17 17 17 16 16 16 16 16 16 16 16 15 15 15 15 15 15 15 15 15 15 15 15 14 14 14 14 14 14 14 14 14 14 14 14 14 14 14
18 18 18 18 17 17 17 17 16 16 16 16 16 16 16 16 15 15 15 15 15 15 15 15 15 15 15 14 14 14 14 14 14 14 13 14 14 14 14 14 14 14 14
18 18 18 18 17 17 17 17 16 16 16 16 16 16 16 15 15 15 15 15 15 15 15 15 15 15 14 14 14 14 13 13 13 13 13 13 13 13 13 13 13 13 13
18 18 18 17 17 17 17 16 16 16 16 16 16 15 15 15 15 15 15 15 15 15 15 15 15 15 15 14 14 14 14 13 13 13 13 13 13 13 13 13 13 13 13
18 18 18 17 17 17 16 16 16 16 16 16 16 15 15 15 15 15 15 15 15 15 15 15 15 15 15 14 14 14 14 14 13 13 13 13 13 13 13 13 13 13 13
18 18 17 17 17 17 17 16 16 16 16 16 15 15 15 15 15 15 15 15 15 15 15 15 15 15 14 14 14 14 14 14 14 13 13 13 13 13 13 13 13 13 13
18 17 17 17 17 17 16 16 16 16 16 16 15 15 15 15 15 15 15 15 15 15 15 15 15 14 14 14 14 14 14 14 14 14 13 13 13 13 13 13 13 13 13
Wind_Speed
1 0 6 7 9 9 10 10 11 11 11 11 12 12 13 13 13 13 13 14 14 14 14 14 14 13 13 13 13 13 13 13 12 12 12 12 12 12 13 12 11 10 12
4 3 8 9 9 9 9 10 11 11 11 12 11 12 12 12 12 12 13 13 14 14 15 14 14 12 12 13 13 14 14 13 13 12 12 11 12 12 12 12 12 10 12
6 6 8 9 9 9 9 9 10 10 11 11 11 11 12 12 12 12 13 13 13 14 14 14 14 14 14 14 14 15 15 14 14 13 12 9 10 12 12 12 12 12 12
7 7 8 9 9 9 9 9 10 10 10 11 11 11 12 12 12 12 12 13 13 13 14 14 15 16 17 16 15 15 15 15 14 13 10 9 9 12 12 12 12 12 12
7 7 8 9 9 9 9 9 10 10 10 10 11 11 11 11 12 12 12 13 13 13 14 14 14 15 16 16 16 16 16 16 16 13 11 10 10 13 13 13 12 12 11
7 7 8 9 9 9 9 9 9 9 9 10 10 10 11 11 11 11 11 12 13 13 14 14 14 15 15 16 16 16 17 16 14 12 11 10 10 13 14 13 13 12 12
6 7 8 9 9 8 8 8 8 8 8 9 9 10 10 11 11 11 11 12 12 13 14 14 14 15 15 16 16 16 16 15 13 11 10 10 12 13 13 13 13 12 12
8 7 8 9 8 8 8 8 8 8 8 8 9 9 10 10 11 11 11 12 12 13 13 13 14 14 15 15 15 15 15 13 12 11 10 10 12 12 13 13 13 12 12
8 7 6 6 7 6 6 7 7 7 7 8 8 9 9 10 11 11 11 12 12 12 13 13 14 14 14 15 15 15 15 14 10 8 9 9 11 12 12 12 12 12 12
6 5 5 5 5 4 4 5 5 6 6 7 7 8 9 10 10 10 10 11 11 11 11 12 12 13 14 14 15 15 15 13 10 9 8 9 11 11 11 11 11 12 12
6 4 4 4 4 4 3 3 4 4 5 5 6 8 8 7 7 8 9 10 10 10 10 10 11 12 13 13 14 14 13 10 9 8 7 10 10 11 11 11 11 11 11
5 5 4 4 4 4 3 3 2 3 3 3 4 5 6 6 6 7 8 9 10 9 9 10 10 10 10 9 11 12 10 9 8 7 9 11 11 11 11 11 11 11 11
6 5 4 4 4 4 2 3 2 3 3 3 4 5 6 6 6 6 5 6 6 7 7 8 8 7 7 7 7 8 9 8 7 7 9 11 11 11 11 11 10 10 10
6 5 5 5 5 4 3 3 3 3 3 3 3 6 6 4 4 4 4 4 4 5 5 6 6 7 7 8 8 8 8 7 7 7 8 10 10 11 10 10 10 10 10
6 5 5 6 5 4 3 2 3 3 3 4 5 5 6 4 3 3 3 4 4 5 5 5 5 5 6 6 7 8 7 7 8 7 8 10 10 10 10 10 9 9 9
6 6 5 6 5 5 4 3 2 3 4 5 5 5 7 5 4 3 3 3 4 5 5 5 5 5 5 5 5 7 7 7 8 8 8 9 10 10 10 9 9 8 7
6 6 6 6 5 5 5 4 4 4 4 3 4 6 7 7 6 5 4 3 4 6 6 6 6 5 5 5 5 5 6 6 7 7 7 7 8 9 10 9 9 8 8
6 6 5 6 6 5 5 4 3 4 4 3 4 5 7 7 7 6 4 3 5 6 5 4 4 5 5 4 4 3 4 5 6 6 7 6 6 7 8 9 9 9 9
7 7 6 6 7 5 5 4 3 4 3 3 4 4 6 7 8 7 4 4 6 5 4 4 4 4 4 4 4 4 3 3 4 5 5 5 6 6 6 7 8 8 9
7 7 6 6 6 6 4 3 3 3 2 3 3 4 6 7 8 7 5 5 6 4 4 4 4 4 3 3 5 5 3 3 3 4 4 4 5 5 6 6 7 7 8
6 6 6 6 5 5 4 3 3 2 1 1 2 4 6 6 7 6 5 4 4 4 4 4 4 4 3 3 4 4 4 4 4 3 3 3 3 4 5 6 6 6 6
7 6 6 6 5 5 4 3 3 3 1 1 2 3 5 6 6 6 5 4 4 4 4 4 4 3 1 1 3 3 2 4 4 3 2 2 2 3 4 4 5 5 5
6 7 7 6 6 5 4 3 3 3 3 2 2 1 1 4 5 6 6 5 4 4 4 4 4 4 2 0 1 3 3 2 1 3 2 2 2 2 2 3 4 4 5
6 6 7 6 6 5 5 6 6 4 3 2 2 1 0 2 4 5 6 5 4 3 4 4 3 3 3 2 0 1 2 4 3 0 2 2 2 1 1 2 3 4 4
6 6 6 6 5 5 6 6 6 4 2 1 1 2 1 0 2 4 5 5 4 3 4 3 3 3 2 2 2 1 2 2 2 3 1 1 2 2 1 1 2 3 3
6 6 6 6 4 4 6 6 6 5 4 4 3 2 1 1 1 2 4 4 4 3 3 3 3 3 2 2 2 2 2 2 2 3 2 1 0 2 1 0 1 2 3
Wind_Direction
235 276 75 67 67 67 64 64 64 66 66 67 72 76 75 75 74 74 74 73 74 75 75 78 79 82 89 94 96 98 100 97 92 89 92 96 96 96 98 100 99 100 104
160 115 85 77 75 72 70 67 68 69 69 72 74 76 76 77 78 78 76 74 74 75 75 77 76 78 88 96 95 95 96 94 90 87 87 89 93 96 99 100 99 101 103
129 111 96 86 80 80 76 72 72 75 75 76 77 79 78 78 79 80 80 79 77 77 76 75 73 74 85 93 92 92 90 89 88 85 81 78 88 95 99 100 101 100 99
130 118 105 96 88 84 80 77 78 79 79 81 81 81 82 82 83 82 83 82 80 79 80 78 76 77 84 87 88 90 88 85 83 81 72 71 82 95 97 99 101 100 100
126 120 111 103 95 88 84 82 82 82 82 83 86 85 83 84 85 85 85 84 83 82 83 82 81 81 84 85 87 87 87 86 82 75 70 71 78 92 94 95 96 98 99
126 127 118 109 101 94 89 88 85 85 86 87 89 89 86 86 87 89 88 86 86 86 85 85 84 84 86 87 87 88 89 86 80 72 69 74 81 92 93 94 94 94 96
137 138 129 117 110 101 96 94 91 90 91 91 92 92 90 90 90 92 91 90 90 90 87 86 85 85 85 85 87 89 89 85 82 76 71 75 84 91 92 92 93 94 93
142 144 139 128 120 111 104 102 98 94 98 99 95 94 93 92 92 92 92 91 91 91 90 88 86 85 84 85 86 88 87 87 84 81 75 78 88 91 90 91 92 91 90
138 138 143 140 129 123 114 109 101 97 101 103 103 99 97 95 96 96 94 92 91 90 90 89 86 86 85 84 84 84 86 84 78 78 84 84 92 93 92 91 90 89 87
135 140 147 148 139 135 133 119 110 105 110 111 108 103 102 98 96 99 95 96 95 94 92 89 86 86 86 86 84 81 83 81 74 74 80 91 96 98 96 94 90 88 87
139 154 158 152 153 151 147 134 115 106 104 107 105 105 104 95 90 93 97 99 99 97 93 91 90 88 85 84 86 84 81 81 78 76 81 94 97 98 98 96 93 90 88
157 169 164 164 168 167 156 128 107 97 100 108 103 103 110 111 102 95 94 95 94 94 92 90 90 87 79 77 82 83 80 79 78 76 83 92 95 95 95 93 91 90 89
164 164 169 168 170 170 156 131 111 98 94 96 102 110 114 107 99 96 89 81 82 83 81 78 75 79 82 86 87 85 83 82 75 76 82 86 90 92 92 91 91 90 90
151 162 169 159 157 163 141 128 126 120 104 103 110 115 116 108 97 100 99 92 83 85 85 79 79 85 87 89 91 89 85 85 79 75 79 83 87 90 91 92 92 90 89
145 154 148 143 146 147 132 132 126 126 123 118 112 113 120 118 113 105 104 101 95 95 94 90 91 86 84 86 92 95 88 86 83 76 78 81 86 89 88 88 88 88 92
148 151 146 142 142 134 129 126 128 128 111 109 117 126 123 124 123 107 96 96 99 107 107 102 95 87 80 85 86 91 91 89 85 81 76 75 78 82 84 81 78 80 91
153 148 146 144 132 129 130 131 124 125 116 114 121 125 121 121 120 112 107 101 103 109 103 94 87 86 84 83 81 87 91 94 93 88 83 76 72 74 78 77 72 78 90
150 148 150 139 131 127 125 123 116 116 118 114 115 120 124 124 121 111 106 105 110 106 102 94 85 83 76 76 77 74 80 84 92 97 90 83 76 73 73 74 74 81 90
155 149 146 139 137 136 131 120 112 105 102 103 106 110 122 129 124 116 115 113 108 100 96 102 84 93 89 82 81 72 67 75 79 97 88 83 81 83 79 76 73 77 83
156 149 146 141 138 134 123 103 88 81 77 89 110 115 120 125 123 118 119 114 108 100 90 94 93 82 96 98 90 72 59 58 68 81 93 88 83 86 83 82 75 69 74
152 147 146 142 145 138 131 129 124 124 109 89 118 123 124 129 127 122 126 118 115 116 121 116 108 93 86 97 88 61 34 38 58 61 71 80 81 84 88 89 83 76 69
157 154 147 148 151 157 157 155 151 142 132 130 118 111 127 133 137 136 136 133 129 121 116 118 117 111 123 119 115 100 49 16 14 35 50 74 76 86 91 98 88 82 79
158 160 158 155 154 156 146 120 102 77 57 58 75 88 125 140 143 141 145 144 145 139 144 146 142 137 153 195 124 134 138 180 318 358 18 44 55 73 78 96 97 90 88
170 165 158 157 154 146 136 137 141 143 151 182 177 164 112 133 142 141 144 147 149 148 156 167 156 150 146 154 126 102 148 153 150 110 353 3 22 57 65 101 97 98 104
161 155 154 152 145 141 138 144 144 144 161 151 119 102 81 77 133 141 144 144 148 156 164 161 151 151 152 159 163 135 101 96 119 146 174 333 3 353 44 109 113 118 127
149 145 144 142 134 136 137 141 145 151 151 133 123 122 110 73 74 122 139 141 147 152 165 171 168 163 165 158 161 162 157 149 157 147 165 184 243 315 347 78 135 137 147
Height
1526 1524 1523 1522 1520 1519 1517 1516 1515 1514 1513 1512 1511 1511 1510 1510 1509 1508 1508 1507 1506 1506 1505 1504 1503 1502 1502 1504 1506 1507 1508 1509 1510 1511 1511 1511 1512 1512 1513 1514 1514 1515 1516
1526 1525 1523 1522 1521 1519 1518 1517 1516 1515 1514 1513 1513 1512 1512 1511 1511 1510 1509 1509 1508 1507 1506 1505 1504 1500 1499 1502 1506 1508 1509 1510 1511 1512 1512 1513 1513 1514 1514 1515 1516 1516 1517
1526 1525 1524 1523 1521 1520 1519 1518 1517 1516 1515 1515 1514 1513 1513 1513 1512 1511 1511 1510 1510 1509 1508 1507 1504 1498 1496 1501 1507 1509 1510 1512 1512 1513 1514 1514 1515 1515 1516 1516 1517 1518 1518
1527 1526 1525 1523 1522 1521 1520 1519 1518 1517 1517 1516 1516 1515 1514 1514 1514 1513 1513 1512 1511 1511 1510 1509 1507 1503 1502 1506 1509 1511 1512 1513 1514 1514 1515 1515 1516 1517 1517 1518 1518 1519 1519
1528 1527 1525 1524 1523 1522 1521 1520 1519 1519 1518 1517 1517 1516 1516 1515 1515 1515 1514 1514 1513 1512 1512 1511 1511 1510 1509 1511 1512 1513 1514 1514 1515 1516 1516 1517 1517 1518 1519 1519 1519 1520 1520
1528 1528 1526 1525 1524 1523 1522 1522 1521 1520 1519 1519 1518 1518 1517 1517 1516 1516 1516 1515 1515 1514 1514 1514 1513 1513 1513 1514 1514 1515 1516 1516 1517 1517 1518 1518 1519 1519 1520 1520 1520 1521 1521
1529 1528 1527 1526 1525 1525 1524 1523 1522 1521 1521 1520 1520 1519 1519 1518 1518 1517 1517 1517 1517 1516 1516 1516 1516 1516 1516 1516 1517 1517 1518 1518 1519 1519 1519 1520 1520 1521 1521 1522 1522 1522 1522
1530 1529 1528 1528 1527 1526 1525 1524 1523 1523 1522 1522 1521 1521 1520 1520 1519 1519 1519 1519 1518 1518 1518 1518 1518 1518 1518 1519 1519 1519 1519 1520 1520 1521 1521 1521 1522 1522 1522 1523 1523 1523 1523
1530 1530 1529 1529 1528 1527 1527 1526 1525 1524 1524 1523 1523 1522 1522 1521 1521 1521 1521 1520 1520 1520 1520 1520 1520 1520 1520 1521 1521 1521 1521 1522 1522 1522 1523 1523 1523 1523 1523 1524 1524 1524 1524
1531 1531 1530 1530 1529 1528 1528 1527 1526 1525 1525 1525 1524 1524 1524 1523 1523 1523 1522 1522 1522 1522 1522 1522 1522 1522 1522 1523 1523 1523 1523 1523 1524 1524 1524 1524 1525 1524 1525 1525 1525 1525 1525
1531 1531 1531 1530 1530 1529 1529 1528 1528 1527 1526 1526 1526 1526 1525 1525 1525 1524 1524 1524 1524 1524 1524 1524 1524 1525 1525 1525 1525 1525 1525 1525 1525 1525 1526 1526 1526 1526 1526 1526 1526 1526 1526
1531 1532 1531 1531 1530 1530 1530 1529 1529 1528 1528 1527 1527 1527 1527 1527 1526 1526 1526 1526 1526 1526 1526 1526 1526 1526 1527 1527 1527 1527 1527 1527 1527 1527 1527 1527 1527 1527 1527 1527 1527 1527 1526
1532 1532 1532 1531 1531 1531 1531 1530 1530 1530 1529 1529 1529 1529 1528 1528 1528 1528 1528 1528 1528 1528 1528 1528 1528 1528 1528 1528 1529 1529 1529 1529 1529 1529 1529 1529 1528 1528 1528 1528 1527 1527 1527
1531 1532 1532 1532 1532 1532 1531 1531 1531 1531 1530 1530 1530 1530 1530 1530 1530 1530 1529 1529 1529 1529 1530 1530 1530 1530 1530 1530 1530 1530 1530 1530 1530 1530 1530 1530 1530 1529 1529 1529 1528 1528 1527
1531 1531 1532 1532 1532 1532 1532 1532 1532 1532 1531 1531 1531 1531 1531 1531 1531 1531 1531 1531 1531 1531 1531 1531 1531 1531 1531 1531 1531 1532 1532 1531 1532 1532 1531 1531 1531 1531 1530 1529 1529 1528 1527
1531 1531 1532 1532 1533 1533 1533 1533 1532 1532 1532 1532 1532 1532 1532 1532 1532 1532 1532 1532 1532 1532 1533 1533 1533 1533 1533 1533 1533 1533 1533 1533 1533 1533 1533 1533 1532 1532 1531 1530 1528 1526 1526
1530 1531 1532 1532 1533 1533 1533 1533 1533 1533 1533 1533 1533 1533 1533 1533 1533 1533 1533 1533 1534 1534 1534 1534 1534 1534 1534 1534 1534 1535 1535 1535 1535 1535 1534 1534 1533 1533 1532 1531 1529 1525 1524
1530 1531 1532 1532 1533 1533 1533 1533 1534 1534 1534 1534 1534 1534 1534 1534 1534 1534 1534 1535 1535 1535 1535 1535 1535 1535 1535 1535 1535 1536 1536 1536 1536 1536 1535 1535 1535 1534 1533 1532 1531 1528 1527
1529 1530 1531 1532 1532 1533 1534 1534 1534 1534 1534 1534 1535 1535 1535 1535 1535 1535 1535 1536 1536 1536 1536 1536 1536 1536 1536 1537 1537 1537 1537 1537 1537 1537 1537 1536 1536 1535 1535 1534 1533 1532 1531
1529 1530 1530 1531 1532 1533 1533 1534 1534 1534 1535 1535 1535 1535 1535 1535 1536 1536 1536 1537 1537 1537 1537 1537 1537 1538 1538 1538 1538 1538 1538 1538 1538 1538 1538 1537 1537 1536 1536 1535 1534 1533 1533
1528 1529 1529 1530 1531 1532 1532 1533 1534 1534 1535 1535 1535 1536 1536 1536 1536 1536 1537 1537 1537 1538 1538 1538 1538 1538 1538 1539 1539 1539 1539 1539 1539 1539 1539 1538 1538 1537 1537 1536 1535 1535 1534
1526 1527 1528 1529 1530 1531 1532 1532 1533 1534 1535 1535 1536 1536 1536 1536 1537 1537 1537 1537 1538 1538 1538 1538 1539 1539 1539 1539 1539 1539 1540 1541 1540 1540 1540 1539 1538 1538 1537 1537 1536 1536 1535
1525 1526 1527 1528 1529 1530 1531 1532 1533 1534 1535 1535 1536 1536 1536 1537 1537 1537 1538 1538 1538 1538 1538 1539 1539 1539 1539 1539 1539 1540 1540 1540 1540 1541 1540 1540 1539 1538 1538 1538 1537 1537 1536
1523 1524 1525 1526 1528 1529 1530 1531 1532 1532 1533 1534 1535 1536 1536 1537 1537 1537 1538 1538 1538 1538 1538 1539 1539 1539 1539 1539 1539 1539 1540 1539 1539 1540 1541 1540 1540 1539 1539 1539 1538 1538 1537
1521 1522 1524 1525 1526 1528 1529 1530 1531 1532 1533 1534 1535 1535 1536 1536 1537 1537 1537 1537 1538 1538 1538 1538 1538 1539 1539 1539 1539 1538 1538 1538 1538 1538 1539 1540 1540 1540 1540 1539 1539 1538 1538
1519 1521 1522 1524 1525 1526 1528 1529 1530 1531 1532 1533 1534 1534 1535 1535 1536 1536 1537 1537 1537 1537 1538 1538 1538 1538 1538 1538 1538 1538 1538 1537 1537 1537 1538 1538 1539 1540 1540 1540 1539 1539 1538